• In Deutschland
  • Länderverzeichnis
  • Für 7 Tage
  • Wassertemperatur
  • Satellitenkarten
  • Wetterkarte
  • Widgets
  • user-avatar
    Anmelden

    Stündliche Wetter Berchtesgaden

    Heute, 21 August, Dienstag

    Zeit Temperatur Niederschläge Wind Luftdruck Luftfeuchtigkeit
    00:00 +19°C° 0,1 mm 1 m/S 709 mmHg 92%
    01:00 +18°C° 0,1 mm 1 m/S 710 mmHg 93%
    02:00 +18°C° 0 mm 1 m/S 710 mmHg 92%
    03:00 +18°C° 0 mm 1 m/S 710 mmHg 92%
    04:00 +16°C° 0 mm 1 m/S 709 mmHg 92%
    05:00 +18°C° 0 mm 1 m/S 710 mmHg 90%
    06:00 +19°C° 0 mm 1 m/S 710 mmHg 89%
    07:00 +20°C° 0 mm 1 m/S 710 mmHg 87%
    08:00 +22°C° 0 mm 1 m/S 710 mmHg 78%
    09:00 +25°C° 0 mm 1 m/S 711 mmHg 68%
    10:00 +27°C° 0 mm 1 m/S 711 mmHg 59%
    11:00 +27°C° 0,1 mm 1 m/S 711 mmHg 58%
    12:00 +28°C° 0,1 mm 1 m/S 710 mmHg 58%
    13:00 +28°C° 0,1 mm 2 m/S 710 mmHg 57%
    14:00 +28°C° 0,7 mm 2 m/S 710 mmHg 62%
    15:00 +27°C° 0,7 mm 2 m/S 710 mmHg 68%
    16:00 +27°C° 0,7 mm 2 m/S 709 mmHg 73%
    17:00 +25°C° 0,5 mm 1 m/S 709 mmHg 78%
    18:00 +23°C° 0,5 mm 1 m/S 709 mmHg 84%
    19:00 +22°C° 0,5 mm 1 m/S 709 mmHg 89%
    20:00 +21°C° 0,1 mm 1 m/S 709 mmHg 90%
    21:00 +20°C° 0,1 mm 1 m/S 709 mmHg 92%
    22:00 +19°C° 0,1 mm 1 m/S 710 mmHg 93%
    23:00 +19°C° 0 mm 1 m/S 710 mmHg 93%

    Morgen, 22 August, Mittwoch

    Zeit Temperatur Niederschläge Wind Luftdruck Luftfeuchtigkeit
    00:00 +19°C° 0 mm 1 m/S 710 mmHg 93%
    01:00 +18°C° 0 mm 1 m/S 710 mmHg 93%
    02:00 +18°C° 0 mm 1 m/S 709 mmHg 93%
    03:00 +18°C° 0 mm 1 m/S 709 mmHg 93%
    04:00 +16°C° 0 mm 1 m/S 709 mmHg 92%
    05:00 +18°C° 0 mm 1 m/S 709 mmHg 90%
    06:00 +19°C° 0 mm 1 m/S 709 mmHg 88%
    07:00 +20°C° 0 mm 1 m/S 710 mmHg 87%
    08:00 +23°C° 0 mm 1 m/S 710 mmHg 76%
    09:00 +25°C° 0 mm 1 m/S 710 mmHg 66%
    10:00 +28°C° 0 mm 1 m/S 710 mmHg 56%
    11:00 +28°C° 0,1 mm 1 m/S 710 mmHg 55%
    12:00 +29°C° 0,1 mm 1 m/S 710 mmHg 54%
    13:00 +29°C° 0,1 mm 2 m/S 709 mmHg 53%
    14:00 +29°C° 1,2 mm 2 m/S 709 mmHg 59%
    15:00 +28°C° 1,2 mm 2 m/S 709 mmHg 66%
    16:00 +27°C° 1,2 mm 2 m/S 708 mmHg 73%
    17:00 +26°C° 1,2 mm 1 m/S 708 mmHg 77%
    18:00 +24°C° 1,2 mm 1 m/S 708 mmHg 82%
    19:00 +22°C° 1,2 mm 1 m/S 708 mmHg 87%
    20:00 +22°C° 0,2 mm 1 m/S 709 mmHg 89%
    21:00 +21°C° 0,2 mm 1 m/S 709 mmHg 90%
    22:00 +20°C° 0,2 mm 1 m/S 709 mmHg 91%
    23:00 +20°C° 0,4 mm 1 m/S 709 mmHg 92%

    übermorgen, 23 August, Donnerstag

    Zeit Temperatur Niederschläge Wind Luftdruck Luftfeuchtigkeit
    00:00 +20°C° 0,4 mm 1 m/S 709 mmHg 92%
    01:00 +19°C° 0,4 mm 1 m/S 709 mmHg 92%
    02:00 +19°C° 0,3 mm 1 m/S 708 mmHg 92%
    03:00 +19°C° 0,3 mm 1 m/S 708 mmHg 92%
    04:00 +19°C° 0,3 mm 1 m/S 708 mmHg 92%
    05:00 +19°C° 0,1 mm 1 m/S 708 mmHg 91%
    06:00 +20°C° 0,1 mm 1 m/S 708 mmHg 90%
    07:00 +21°C° 0,1 mm 1 m/S 708 mmHg 89%
    08:00 +22°C° 0,3 mm 1 m/S 708 mmHg 84%
    09:00 +23°C° 0,3 mm 1 m/S 708 mmHg 79%
    10:00 +23°C° 0,3 mm 0 m/S 708 mmHg 74%
    11:00 +26°C° 1 mm 1 m/S 708 mmHg 72%
    12:00 +26°C° 1 mm 1 m/S 708 mmHg 70%
    13:00 +27°C° 1 mm 1 m/S 707 mmHg 68%
    14:00 +27°C° 1,5 mm 1 m/S 707 mmHg 70%
    15:00 +26°C° 1,5 mm 1 m/S 707 mmHg 73%
    16:00 +24°C° 1,5 mm 0 m/S 707 mmHg 75%
    17:00 +24°C° 0,8 mm 1 m/S 707 mmHg 79%
    18:00 +23°C° 0,8 mm 1 m/S 706 mmHg 83%
    19:00 +22°C° 0,8 mm 1 m/S 706 mmHg 87%
    20:00 +21°C° 0,2 mm 1 m/S 706 mmHg 88%
    21:00 +21°C° 0,2 mm 1 m/S 707 mmHg 89%
    22:00 +20°C° 0,2 mm 1 m/S 707 mmHg 90%
    23:00 +20°C° 0,2 mm 1 m/S 707 mmHg 90%

    24 August, Freitag

    Zeit Temperatur Niederschläge Wind Luftdruck Luftfeuchtigkeit
    00:00 +19°C° 0,2 mm 1 m/S 706 mmHg 91%
    01:00 +19°C° 0,2 mm 1 m/S 706 mmHg 91%
    02:00 +19°C° 0,2 mm 1 m/S 706 mmHg 91%
    03:00 +18°C° 0,2 mm 1 m/S 706 mmHg 91%
    04:00 +18°C° 0,2 mm 1 m/S 705 mmHg 91%
    05:00 +19°C° 0,2 mm 1 m/S 705 mmHg 91%
    06:00 +19°C° 0,2 mm 1 m/S 705 mmHg 90%
    07:00 +20°C° 0,2 mm 1 m/S 706 mmHg 89%
    08:00 +21°C° 0,5 mm 1 m/S 706 mmHg 87%
    09:00 +22°C° 0,5 mm 1 m/S 706 mmHg 85%
    10:00 +23°C° 0,5 mm 1 m/S 706 mmHg 83%
    11:00 +23°C° 0,7 mm 2 m/S 705 mmHg 81%
    12:00 +24°C° 0,7 mm 2 m/S 705 mmHg 80%
    13:00 +24°C° 0,7 mm 2 m/S 705 mmHg 79%
    14:00 +23°C° 1 mm 2 m/S 705 mmHg 82%
    15:00 +23°C° 1 mm 2 m/S 705 mmHg 85%
    16:00 +21°C° 1 mm 2 m/S 705 mmHg 88%
    17:00 +20°C° 1,7 mm 2 m/S 705 mmHg 91%
    18:00 +19°C° 1,7 mm 2 m/S 705 mmHg 93%
    19:00 +17°C° 1,7 mm 2 m/S 705 mmHg 96%
    20:00 +17°C° 1,2 mm 2 m/S 705 mmHg 96%
    21:00 +16°C° 1,2 mm 2 m/S 706 mmHg 96%
    22:00 +16°C° 1,2 mm 1 m/S 706 mmHg 96%
    23:00 +15°C° 0,5 mm 1 m/S 706 mmHg 96%

    25 August, Samstag

    Zeit Temperatur Niederschläge Wind Luftdruck Luftfeuchtigkeit
    00:00 +15°C° 0,5 mm 1 m/S 706 mmHg 96%
    01:00 +15°C° 0,5 mm 1 m/S 706 mmHg 96%
    02:00 +15°C° 0,3 mm 1 m/S 706 mmHg 96%
    03:00 +14°C° 0,3 mm 1 m/S 706 mmHg 96%
    04:00 +14°C° 0,3 mm 1 m/S 706 mmHg 96%
    05:00 +14°C° 0,3 mm 1 m/S 706 mmHg 96%
    06:00 +14°C° 0,3 mm 1 m/S 706 mmHg 95%
    07:00 +14°C° 0,3 mm 1 m/S 706 mmHg 95%
    08:00 +15°C° 0,3 mm 1 m/S 706 mmHg 92%
    09:00 +15°C° 0,3 mm 1 m/S 706 mmHg 89%
    10:00 +15°C° 0,3 mm 0 m/S 705 mmHg 87%
    11:00 +16°C° 0,8 mm 1 m/S 705 mmHg 87%
    12:00 +15°C° 0,8 mm 1 m/S 705 mmHg 88%
    13:00 +15°C° 0,8 mm 1 m/S 704 mmHg 88%
    14:00 +15°C° 0,8 mm 1 m/S 704 mmHg 89%
    15:00 +15°C° 0,8 mm 1 m/S 704 mmHg 90%
    16:00 +15°C° 0,8 mm 1 m/S 703 mmHg 91%
    17:00 +14°C° 0,7 mm 1 m/S 703 mmHg 93%
    18:00 +14°C° 0,7 mm 1 m/S 703 mmHg 95%
    19:00 +13°C° 0,7 mm 1 m/S 703 mmHg 96%
    20:00 +13°C° 0,7 mm 1 m/S 702 mmHg 97%
    21:00 +13°C° 0,7 mm 1 m/S 702 mmHg 97%
    22:00 +12°C° 0,7 mm 1 m/S 702 mmHg 97%
    23:00 +12°C° 1,7 mm 1 m/S 701 mmHg 97%

    26 August, Sonntag

    Zeit Temperatur Niederschläge Wind Luftdruck Luftfeuchtigkeit
    00:00 +12°C° 1,7 mm 1 m/S 701 mmHg 97%
    01:00 +12°C° 1,7 mm 1 m/S 700 mmHg 97%
    02:00 +11°C° 2,2 mm 1 m/S 700 mmHg 98%
    03:00 +11°C° 2,2 mm 1 m/S 699 mmHg 98%
    04:00 +11°C° 2,2 mm 1 m/S 699 mmHg 98%
    05:00 +11°C° 1,7 mm 1 m/S 699 mmHg 97%
    06:00 +11°C° 1,7 mm 1 m/S 698 mmHg 97%
    07:00 +11°C° 1,7 mm 1 m/S 698 mmHg 97%
    08:00 +12°C° 0,4 mm 1 m/S 698 mmHg 94%
    09:00 +13°C° 0,4 mm 1 m/S 698 mmHg 92%
    10:00 +14°C° 0,4 mm 1 m/S 698 mmHg 89%
    11:00 +13°C° 1,9 mm 1 m/S 698 mmHg 91%
    12:00 +13°C° 1,9 mm 1 m/S 699 mmHg 94%
    13:00 +12°C° 1,9 mm 2 m/S 699 mmHg 96%
    14:00 +12°C° 1,2 mm 2 m/S 699 mmHg 96%
    15:00 +12°C° 1,2 mm 2 m/S 699 mmHg 96%
    16:00 +10°C° 1,2 mm 2 m/S 699 mmHg 95%
    17:00 +10°C° 1,9 mm 2 m/S 700 mmHg 96%
    18:00 +10°C° 1,9 mm 2 m/S 700 mmHg 97%
    19:00 +9°C° 1,9 mm 2 m/S 701 mmHg 97%
    20:00 +9°C° 1,6 mm 2 m/S 701 mmHg 97%
    21:00 +9°C° 1,6 mm 2 m/S 702 mmHg 97%
    22:00 +9°C° 1,6 mm 2 m/S 703 mmHg 98%
    23:00 +9°C° 1,6 mm 3 m/S 703 mmHg 98%
    Mehr zeigen